Torna al catalogo

STARLINK-32169

AttivoComunicazioniVLEO
NORAD 60589·PAYLOAD·🇺🇸 United States

Lanciato Aug 20, 2024 da Cape Canaveral Space Force Station

Loading…

Prossimi Passaggi (prossime 24 ore)

TLE

AggiornatoSource: CelesTrak SupGP

Epoca: Sep 14, 2026, 20:57 UTC

1 60589C 24150G   26257.87340278 -.00045158  00000+0 -13339-2 0  2573
2 60589  53.1587 147.8259 0001371  98.6050 233.2466 15.34419868    11

Traccia STARLINK-32169 in tempo reale con AllMySat

Download on the App Store